Location: Newark
(59.4564°N, 26.6917°E)
Time: 10:44:41
(UTC+00:00)

SR - Pass Details

Date: 30 November 2019
Orbit: 573 x 882 km, 66.7° (Epoch: 05 December)

Event Time Altitude Azimuth Distance (km) Brightness Sun altitude
Rises 18:24:00 0° 312° (NW) 3,487 ? -36.3°
Reaches altitude 10° 18:26:34 10° 307° (NW) 2,552 ? -36.6°
Enters shadow 18:30:16 36° 286° (WNW) 1,368 ? -37.1°
Maximum altitude 18:32:19 52° 234° (SW) 1,086 - -37.3°
Drops below altitude 10° 18:37:55 10° 159° (SSE) 2,481 - -38.0°
Sets 18:40:23 0° 155° (SSE) 3,381 - -38.3°
